Lexington Weather

Lexington, Massachusetts, USA

58°F
9/16/2019 6:28am 
  • Lexington Conditions: Clear
  • Temperature: 58.3°F / 14.6°CColder 0.5°F than last hour.
  • Dew Point: 54.1°FDecreased 2.4°Fsince last hour.
  • Relative Humidity: 86%Decreased 6.0% since last hour.
  • Wind: Calm, 10-min avg: Calm, gust: None
  • Barometer: 30.03 inRising 0.03  inHg/hr Rising Slowly
  • Visibility: 10 miles
  • Rain Today: 0.00 in
  •   

Regional Weather Roundup
for Boston, MA

        
000
ASUS41 KBOX 161010
RWRBOX

REGIONAL WEATHER ROUNDUP
NATIONAL WEATHER SERVICE BOSTON/NORTON MA
600 AM EDT MON SEP 16 2019

NOTE:  "FAIR" INDICATES FEW OR NO CLOUDS BELOW 12,000 FEET WITH NO 
SIGNIFICANT WEATHER AND/OR OBSTRUCTIONS TO VISIBILITY.

MAZALL-161100-
EASTERN MASSACHUSETTS
  
CITY           SKY/WX    TMP DP  RH WIND       PRES   REMARKS
BOSTON         MOCLDY    64  51  62 N7        30.05R                  
BEVERLY        FAIR      57  52  83 N3        30.05R                  
LAWRENCE       FAIR      56  53  90 CALM      30.07R                  
BEDFORD        FAIR      56  51  84 CALM      30.05R                  
BLUE HILL        N/A     58  55  90 N12       30.04S                  
NORWOOD        FAIR      54  51  90 CALM      30.05R FOG              
MARSHFIELD     FAIR      64  57  77 CALM      30.04R                  
PLYMOUTH       FAIR      60  56  86 NW3       30.04S                  
TAUNTON        FOG       57  54  89 CALM      30.04S VSB 3/4          
NEW BEDFORD    CLOUDY    63  57  81 NW3       30.03S                  
$$

MAZALL-161100-
CAPE COD AND THE ISLANDS
  
CITY           SKY/WX    TMP DP  RH WIND       PRES   REMARKS
FALMOUTH       CLOUDY    63  61  94 N3        30.04R                  
HYANNIS        MOCLDY    64  57  78 NW3       30.02R                  
CHATHAM        MOCLDY    62  59  90 CALM      30.04R                  
PROVINCETOWN   FAIR      63  57  81 NW8       30.04R                  
NANTUCKET      CLOUDY    66  64  93 NW6       30.03R                  
MARTHAS VNYRD  CLOUDY    63  60  90 NW3       30.04R                  
$$
 
MAZALL-161100-
CENTRAL AND WESTERN MASSACHUSETTS
  
CITY           SKY/WX    TMP DP  RH WIND       PRES   REMARKS
WORCESTER      FAIR      55  54  96 W6        30.07R                  
FITCHBURG      FAIR      53  51  93 CALM      30.07R                  
ORANGE         FOG       53  51  93 CALM      30.09R VSB 3/4          
SPRINGFIELD    MOCLDY    55  55  99 N3        30.06R                  
WESTFIELD      FAIR      55  53  93 CALM      30.07R                  
NORTH ADAMS    CLOUDY    58  54  86 CALM      30.08S                  
PITTSFIELD     CLOUDY    58  52  80 W6        30.08R                  
$$
 
RIZALL-161100-
RHODE ISLAND
  
CITY           SKY/WX    TMP DP  RH WIND       PRES   REMARKS
PROVIDENCE     MOCLDY    66  58  75 NW5       30.06R                  
NEWPORT        CLOUDY    65  60  84 N5        30.04R                  
BLOCK ISLAND   CLOUDY   N/A N/A N/A NW3       30.06R                  
SMITHFIELD     FAIR      58  56  93 CALM      30.07R                  
WESTERLY       MOCLDY    64  63  96 CALM      30.05R                  
$$
 
CTZALL-161100-
CONNECTICUT
  
CITY           SKY/WX    TMP DP  RH WIND       PRES   REMARKS
BRADLEY INTL   MOCLDY    61  57  87 NW3       30.05S                  
HARTFORD       CLOUDY    63  60  90 SE3       30.06R                  
BRIDGEPORT     LGT RAIN  66  59  78 N3        30.07R                  
DANBURY        LGT RAIN  61  59  93 CALM      30.09R                  
GROTON         MOCLDY    65  59  81 CALM      30.05R                  
NEW HAVEN      CLOUDY    65  61  87 CALM      30.06R FOG              
CHESTER        CLOUDY    64  59  82 NW5       30.07R                  
MERIDEN        FAIR      59  57  93 CALM      30.06S                  
WILLIMANTIC    CLOUDY    60  59  96 N3        30.08R                  
OXFORD         MOCLDY    60  58  92 CALM      30.08S                  
$$

MEZ002-015-021-024-NHZ003-005-008-011-012-014-VTZ005-008-161100-
NORTHERN NEW ENGLAND
  
CITY           SKY/WX    TMP DP  RH WIND       PRES   REMARKS
PORTLAND ME    CLOUDY    54  47  77 SE5       30.03R                  
BANGOR ME      MOCLDY    54  48  80 W5        29.99R                  
CONCORD NH     FAIR      55  47  74 NW7       30.06R                  
MANCHESTER NH  MOCLDY    60  48  64 NW5       30.05R                  
NASHUA NH      FAIR      57  52  83 NW6       30.07R                  
PORTSMOUTH NH  CLOUDY    58  46  63 W8        30.03R                  
JAFFREY NH     FAIR      52  50  93 CALM      30.08R                  
KEENE NH       FAIR      52  52 100 CALM      30.09R FOG              
BURLINGTON VT  FAIR      51  47  86 CALM      30.11R                  
MT. WASHINGTON FOG       32  32 100 W53         N/A  VSB 0   WCI  14  
$$

NYZ052-076-161100-
EASTERN NEW YORK
  
CITY           SKY/WX    TMP DP  RH WIND       PRES   REMARKS
ALBANY         MOCLDY    58  50  75 N5        30.10R                  
NEW YORK CITY  MOCLDY    73  58  59 NW13      30.05R                  
$$
 
ANZALL-161100-
MARINE OBSERVATIONS
  
STATION/POSITION TIME  TEMP    WIND        PRES    VSBY  WAVE
                       AIR SEA DIR/SP/G                  HT/PER
                 (UTC) (F)     (DEG/KT/KT) (MB)    (MI)  (FT/S)
BOSTON BUOY      0950   64 65  340/ 10/ 12 1016.3R         2/11
BUZZARDS BAY     0900   67     320/  9/ 10 1017.5R
NANTUCKET SOUND  0950   68 69  330/ 12/ 16   N/A           1
MASS BAY-STELLWA 0904   64 63  310/ 10/ 12 1016.7R  1 7/8  2/11
ISLE OF SHOALS   0900   61     290/  6/  7 1016.7R
S OF BLOCK IS    1000      66                N/A           3/12
$$

......................KEY.........................
  SKY/WX - SKY CONDITION/PRESENT WEATHER
  TMP    - TEMPERATURE IN FAHRENHEIT
  DWPT   - DEWPOINT IN FAHRENHEIT
  RH     - RELATIVE HUMIDITY IN PERCENT
  WIND   - DIRECTION AND SPEED IN MPH
  PRES   - MEAN SEA LEVEL PRESSURE IN INCHES OF HG
  WCI    - WIND CHILL INDEX
  VSB    - VISIBILITY IN MILES
  HX     - HEAT INDEX
  TC     - TEMPERATURE IN CELSIUS
  VRB    - VARIABLE WIND DIRECTION
  N/A    - NOT AVAILABLE
  
      

Other recent Regional Weather Roundups

Mon Sep 16, 6:00am

Mon Sep 16, 5:10am

Mon Sep 16, 5:00am

Mon Sep 16, 4:10am

Mon Sep 16, 4:00am

Mon Sep 16, 3:10am

Mon Sep 16, 3:00am

Mon Sep 16, 2:10am

Mon Sep 16, 2:00am

Mon Sep 16, 1:10am

Mon Sep 16, 1:01am

Mon Sep 16, 12:10am

Mon Sep 16, 12:00am

Sun Sep 15, 11:10pm

Sun Sep 15, 11:00pm

Sun Sep 15, 10:10pm

Sun Sep 15, 10:00pm

Sun Sep 15, 9:10pm

Sun Sep 15, 9:00pm

Sun Sep 15, 8:10pm

Sun Sep 15, 8:00pm

Sun Sep 15, 7:10pm

Sun Sep 15, 7:00pm

Sun Sep 15, 6:10pm

Sun Sep 15, 6:00pm

Sun Sep 15, 5:10pm

Sun Sep 15, 5:01pm

Sun Sep 15, 4:10pm

Sun Sep 15, 4:00pm

Sun Sep 15, 3:10pm

Sun Sep 15, 3:00pm

Sun Sep 15, 2:10pm

Sun Sep 15, 2:01pm

Sun Sep 15, 1:10pm

Sun Sep 15, 1:00pm

Sun Sep 15, 12:10pm

Sun Sep 15, 12:00pm

Sun Sep 15, 11:10am

Sun Sep 15, 11:01am

Sun Sep 15, 10:10am

Sun Sep 15, 10:01am

Sun Sep 15, 9:10am

Sun Sep 15, 9:00am

Sun Sep 15, 8:10am

Sun Sep 15, 8:00am

Sun Sep 15, 7:10am

Sun Sep 15, 7:00am

Sun Sep 15, 6:10am

Sun Sep 15, 6:00am

Sun Sep 15, 5:10am

Sun Sep 15, 5:00am

Sun Sep 15, 4:10am

Sun Sep 15, 4:00am

Sun Sep 15, 3:10am

Sun Sep 15, 3:00am

Sun Sep 15, 2:10am

Sun Sep 15, 2:00am

Sun Sep 15, 1:10am

Sun Sep 15, 1:01am

Sun Sep 15, 12:10am

Sun Sep 15, 12:00am

Sat Sep 14, 11:10pm

Sat Sep 14, 11:00pm

Sat Sep 14, 10:10pm

Sat Sep 14, 10:00pm

Sat Sep 14, 9:10pm

Sat Sep 14, 9:00pm

Sat Sep 14, 8:10pm

Sat Sep 14, 8:00pm

Sat Sep 14, 7:10pm

Sat Sep 14, 7:01pm

Sat Sep 14, 6:10pm

Sat Sep 14, 6:00pm

Sat Sep 14, 5:10pm

Sat Sep 14, 5:00pm

Sat Sep 14, 4:10pm

Sat Sep 14, 4:00pm

Sat Sep 14, 3:10pm

Sat Sep 14, 3:00pm

Sat Sep 14, 2:10pm

Sat Sep 14, 2:00pm

Sat Sep 14, 1:10pm

Sat Sep 14, 1:01pm

Sat Sep 14, 12:10pm

Sat Sep 14, 12:00pm

Sat Sep 14, 11:10am

Sat Sep 14, 11:00am

Sat Sep 14, 10:10am

Sat Sep 14, 10:00am

Sat Sep 14, 9:10am

Sat Sep 14, 9:01am

Sat Sep 14, 8:10am

Sat Sep 14, 8:00am

Sat Sep 14, 7:10am

Sat Sep 14, 7:00am

Sat Sep 14, 6:10am

Sat Sep 14, 6:00am

Sat Sep 14, 5:10am

Sat Sep 14, 5:00am

Sat Sep 14, 4:10am

Sat Sep 14, 4:00am

Sat Sep 14, 3:10am

Sat Sep 14, 3:00am

Sat Sep 14, 2:10am

Sat Sep 14, 2:00am

Sat Sep 14, 1:10am

Sat Sep 14, 1:01am

Sat Sep 14, 12:10am

Sat Sep 14, 12:00am

Fri Sep 13, 11:10pm

Fri Sep 13, 11:00pm

Fri Sep 13, 10:10pm

Fri Sep 13, 10:00pm

Fri Sep 13, 9:10pm

Fri Sep 13, 9:00pm

Fri Sep 13, 8:10pm

Fri Sep 13, 8:00pm

Fri Sep 13, 7:10pm

Fri Sep 13, 7:01pm

Fri Sep 13, 6:10pm

Fri Sep 13, 6:00pm

Fri Sep 13, 5:10pm

Fri Sep 13, 5:00pm

Fri Sep 13, 4:10pm

Fri Sep 13, 4:00pm

Fri Sep 13, 3:10pm

Fri Sep 13, 3:00pm

Fri Sep 13, 2:10pm

Fri Sep 13, 2:00pm

Fri Sep 13, 1:10pm

Fri Sep 13, 1:01pm

Fri Sep 13, 12:10pm

Fri Sep 13, 12:00pm

Fri Sep 13, 11:10am

Fri Sep 13, 11:01am

Fri Sep 13, 10:10am

Fri Sep 13, 10:01am

Fri Sep 13, 9:10am

Fri Sep 13, 9:00am

Fri Sep 13, 8:10am

Fri Sep 13, 8:00am

Fri Sep 13, 7:10am

Fri Sep 13, 7:00am

Meta data:

ID: 0074babc-2dfa-4af6-b9b3-8f4e8e0ac7bd
Link: https://api.weather.gov/products/0074babc-2dfa-4af6-b9b3-8f4e8e0ac7bd